TimePDT,TemperatureF,Dew PointF,Humidity,Sea Level PressureIn,VisibilityMPH,Wind Direction,Wind SpeedMPH,Gust SpeedMPH,PrecipitationIn,Events,Conditions,WindDirDegrees,DateUTC
12:56 AM,52.0,35.1,53,30.13,10.0,West,9.2,-,N/A,,Clear,280,2014-03-10 07:56:00
1:56 AM,50.0,36.0,59,30.12,10.0,West,5.8,-,N/A,,Clear,260,2014-03-10 08:56:00
2:56 AM,48.9,35.1,59,30.10,10.0,Calm,Calm,-,N/A,,Clear,0,2014-03-10 09:56:00
3:56 AM,46.0,34.0,63,30.09,10.0,Calm,Calm,-,N/A,,Clear,0,2014-03-10 10:56:00
4:56 AM,46.0,34.0,63,30.08,10.0,Calm,Calm,-,N/A,,Clear,0,2014-03-10 11:56:00
5:56 AM,41.0,33.1,73,30.09,10.0,WSW,3.5,-,N/A,,Clear,250,2014-03-10 12:56:00
6:56 AM,43.0,33.1,68,30.11,10.0,WSW,3.5,-,N/A,,Clear,250,2014-03-10 13:56:00
7:56 AM,46.9,33.1,59,30.11,10.0,SSW,3.5,-,N/A,,Clear,200,2014-03-10 14:56:00
8:56 AM,51.1,36.0,56,30.13,10.0,Calm,Calm,-,N/A,,Clear,0,2014-03-10 15:56:00
9:56 AM,61.0,36.0,39,30.11,10.0,Calm,Calm,-,N/A,,Clear,0,2014-03-10 16:56:00
10:56 AM,71.1,24.1,17,30.09,10.0,West,17.3,-,N/A,,Clear,280,2014-03-10 17:56:00
11:56 AM,72.0,24.1,17,30.09,10.0,West,18.4,27.6,N/A,,Clear,280,2014-03-10 18:56:00
12:56 PM,71.1,27.0,19,30.08,10.0,West,25.3,31.1,N/A,,Clear,280,2014-03-10 19:56:00
1:56 PM,71.1,30.0,22,30.06,10.0,West,24.2,31.1,N/A,,Clear,280,2014-03-10 20:56:00
2:56 PM,72.0,30.0,21,30.03,10.0,West,24.2,29.9,N/A,,Clear,280,2014-03-10 21:56:00
3:56 PM,71.1,28.0,20,30.03,10.0,West,27.6,35.7,N/A,,Clear,280,2014-03-10 22:56:00
4:56 PM,69.1,30.9,24,30.03,10.0,West,26.5,-,N/A,,Clear,280,2014-03-10 23:56:00
5:56 PM,64.9,35.1,33,30.04,10.0,West,24.2,28.8,N/A,,Clear,280,2014-03-11 00:56:00
6:56 PM,60.1,39.9,47,30.04,10.0,West,24.2,-,N/A,,Clear,260,2014-03-11 01:56:00
7:56 PM,57.9,39.0,49,30.03,10.0,West,19.6,28.8,N/A,,Clear,270,2014-03-11 02:56:00
8:56 PM,57.9,39.9,51,30.04,10.0,West,20.7,26.5,N/A,,Clear,280,2014-03-11 03:56:00
9:56 PM,57.9,39.0,49,30.03,10.0,WNW,25.3,31.1,N/A,,Clear,290,2014-03-11 04:56:00
10:56 PM,57.0,41.0,55,30.03,10.0,West,18.4,-,N/A,,Clear,280,2014-03-11 05:56:00
11:56 PM,55.9,43.0,62,30.03,10.0,West,25.3,32.2,N/A,,Clear,280,2014-03-11 06:56:00